Погода в Упорниковской

Россия / Волгоградская область     50°14′31″N   41°50′01″E
темп.,
°C
ветер,
м/с
пор.,
м/с
влажн.,
%
обл.,
%
осадки,
мм/ч
давл.,
гПа
погр.,
м
7 марта, вс
вс700:00−5ссз6107788 0.0 1018758
03:00−6сз696745 0.0 1019844
06:00−5з58660 0.0 1020678
09:00−3зюз696217 0.0 10191157
12:000зюз81152100 0.1 10181437
15:000зюз9124599 0.1 10141315
18:00−1юз9155295 0.0 10121100
21:00−1зюз11185798 0.0 10101128
8 марта, пн
пн800:00−1зюз11177096 0.0 10081101
03:00−1зюз9157598 0.0 1008928
06:00−2зюз8148499 0.1 1008821
09:00−1зюз9147796 0.2 1007876
12:00+1зюз101468100 0.1 10071281
15:00+2зюз81273100 0.1 10061213
18:000зюз6118499 0.1 1007676
21:00−1сз248899 0.8 1009322
9 марта, вт
вт900:00−2с228798 0.1 1009319
03:00−3св229599 0.9 1009178
06:00−3сз2495100 1.4 1009295
09:00−3зсз5780100 2.1 1011858
12:00−1зсз5766100 0.5 10121187
15:00−2сз6874100 1.4 10131077
18:00−5ссз6873100 0.2 10141025
21:00−7ссз797692 0.3 1018848
10 марта, ср
ср1000:00−10ссз6976100 0.0 1020759
03:00−11сз5976100 0.0 1022682
06:00−12сз597768 0.0 1023690
09:00−11сз696962 0.0 1025806
12:00−10ссз68587 0.0 1026970
15:00−10ссз57524 0.0 1026885
18:00−11ссз46610 0.0 1026622
21:00−13с46660 0.0 1028434
11 марта, чт
чт1100:00−14ссв35693 0.0 1029369
03:00−15св34721 0.0 1030292
06:00−16св34730 0.0 1030260
09:00−14всв34610 0.0 1031365
12:00−11всв34500 0.0 1032672
15:00−10св34450 0.0 1031846
18:00−11св44540 0.0 1031569
21:00−13всв34660 0.0 1033332